{"data":{"norad_id":65318,"epoch":"2026-09-20T04:19:51.106368Z","epoch_age_seconds":186493,"freshness":"STALE","line1":"1 65318U 25188D   26263.18045262  .00002869  00000+0  26988-3 0  9994","line2":"2 65318  97.7315 336.9225 0002700 282.8905  77.2013 14.94664250 58105","mean_motion":14.9466425,"eccentricity":0.00027,"inclination_deg":97.7315,"raan_deg":336.9225,"arg_perigee_deg":282.8905,"mean_anomaly_deg":77.2013,"bstar":0.00026988,"rev_number":5810,"period_min":96.342707066152,"perigee_km":581.53546361317,"apogee_km":585.29470173781,"semimajor_km":6961.5520826755,"source":"CELESTRAK","updated_at":"2026-09-21T09:00:15.249632Z"}}